QPF
0.01 0.01 0.01 0.02 0.02 0.01 0.01 0.02 0.02 0.02 0.01 0.02 0.02 0.01 0.01 0.00 0.00 0.01 0.01 0.01 0.01 0.01 0.02 0.04 0.08 0.09 0.13 0.15 0.14 0.15 0.18 0.19 0.15 0.11 0.10 0.10 0.10 0.10
0.00 0.01 0.01 0.01 0.02 0.02 0.01 0.01 0.01 0.01 0.02 0.01 0.01 0.01 0.01 0.00 0.00 0.00 0.00 0.00 0.01 0.01 0.01 0.03 0.03 0.03 0.04 0.07 0.08 0.08 0.13 0.19 0.19 0.12 0.07 0.06 0.06 0.08
0.00 0.00 0.01 0.01 0.02 0.01 0.01 0.01 0.01 0.01 0.02 0.02 0.02 0.01 0.01 0.01 0.01 0.00 0.00 0.01 0.01 0.01 0.02 0.02 0.02 0.02 0.03 0.04 0.06 0.07 0.09 0.14 0.20 0.18 0.11 0.08 0.08 0.08
0.00 0.00 0.00 0.00 0.01 0.01 0.01 0.01 0.01 0.01 0.01 0.01 0.02 0.02 0.01 0.01 0.01 0.01 0.00 0.01 0.02 0.01 0.01 0.02 0.02 0.02 0.03 0.03 0.04 0.06 0.07 0.07 0.12 0.15 0.12 0.10 0.09 0.09
0.00 0.00 0.00 0.00 0.00 0.01 0.01 0.01 0.01 0.01 0.01 0.01 0.02 0.02 0.02 0.01 0.01 0.01 0.00 0.01 0.01 0.01 0.01 0.02 0.02 0.03 0.04 0.05 0.05 0.04 0.05 0.05 0.05 0.06 0.08 0.08 0.08 0.06
0.00 0.00 0.00 0.00 0.01 0.01 0.01 0.01 0.00 0.00 0.01 0.01 0.02 0.01 0.02 0.01 0.01 0.01 0.01 0.01 0.02 0.02 0.02 0.02 0.02 0.02 0.03 0.07 0.07 0.05 0.05 0.05 0.04 0.04 0.05 0.06 0.06 0.05
0.00 0.00 0.00 0.00 0.00 0.00 0.00 0.01 0.01 0.01 0.01 0.01 0.01 0.01 0.01 0.01 0.01 0.01 0.01 0.02 0.02 0.02 0.02 0.02 0.02 0.01 0.02 0.05 0.08 0.08 0.06 0.05 0.04 0.03 0.03 0.03 0.03 0.03
0.00 0.00 0.00 0.00 0.00 0.00 0.00 0.00 0.00 0.01 0.01 0.01 0.01 0.01 0.00 0.00 0.00 0.01 0.01 0.02 0.02 0.02 0.01 0.01 0.01 0.01 0.02 0.02 0.05 0.09 0.08 0.05 0.05 0.04 0.03 0.03 0.03 0.02
0.00 0.00 0.01 0.01 0.00 0.00 0.00 0.00 0.00 0.00 0.00 0.01 0.01 0.00 0.00 0.00 0.01 0.01 0.01 0.01 0.01 0.01 0.01 0.01 0.01 0.02 0.02 0.01 0.02 0.05 0.08 0.06 0.05 0.05 0.05 0.04 0.04 0.03
0.00 0.00 0.00 0.00 0.00 0.00 0.00 0.00 0.00 0.00 0.00 0.00 0.00 0.00 0.01 0.01 0.01 0.01 0.02 0.02 0.01 0.01 0.02 0.03 0.02 0.01 0.01 0.01 0.02 0.03 0.05 0.05 0.04 0.05 0.06 0.06 0.06 0.06
0.00 0.00 0.00 0.00 0.00 0.00 0.00 0.00 0.00 0.00 0.00 0.00 0.00 0.00 0.00 0.00 0.01 0.01 0.02 0.02 0.02 0.01 0.01 0.01 0.02 0.01 0.01 0.01 0.02 0.03 0.05 0.05 0.03 0.04 0.05 0.06 0.08 0.10
0.00 0.00 0.00 0.00 0.00 0.00 0.00 0.00 0.00 0.00 0.00 0.01 0.00 0.00 0.00 0.00 0.00 0.00 0.01 0.02 0.02 0.01 0.01 0.01 0.01 0.02 0.02 0.01 0.01 0.03 0.03 0.05 0.05 0.04 0.05 0.06 0.08 0.10
0.00 0.00 0.00 0.00 0.00 0.00 0.00 0.00 0.00 0.00 0.01 0.01 0.01 0.01 0.00 0.00 0.00 0.00 0.01 0.01 0.02 0.01 0.01 0.01 0.02 0.02 0.03 0.02 0.01 0.01 0.02 0.03 0.05 0.06 0.06 0.06 0.07 0.07
0.00 0.00 0.00 0.00 0.00 0.00 0.00 0.00 0.00 0.00 0.00 0.01 0.01 0.01 0.01 0.00 0.00 0.01 0.00 0.01 0.01 0.01 0.01 0.02 0.02 0.03 0.04 0.04 0.03 0.02 0.02 0.03 0.03 0.06 0.06 0.07 0.07 0.08
0.00 0.00 0.01 0.01 0.01 0.01 0.01 0.00 0.00 0.00 0.00 0.01 0.01 0.01 0.00 0.00 0.00 0.00 0.00 0.01 0.01 0.02 0.01 0.02 0.03 0.03 0.04 0.04 0.04 0.03 0.03 0.03 0.04 0.04 0.06 0.07 0.07 0.07
0.00 0.01 0.01 0.01 0.01 0.02 0.02 0.01 0.01 0.01 0.01 0.01 0.00 0.00 0.01 0.00 0.00 0.00 0.00 0.01 0.01 0.01 0.02 0.02 0.03 0.05 0.05 0.05 0.06 0.05 0.05 0.05 0.04 0.04 0.05 0.06 0.08 0.09
0.01 0.02 0.02 0.02 0.02 0.01 0.02 0.03 0.02 0.01 0.01 0.01 0.01 0.01 0.01 0.01 0.01 0.01 0.01 0.01 0.02 0.02 0.02 0.03 0.03 0.04 0.05 0.05 0.06 0.06 0.07 0.07 0.06 0.06 0.06 0.07 0.07 0.08
0.01 0.01 0.01 0.02 0.02 0.02 0.02 0.02 0.02 0.01 0.01 0.01 0.01 0.01 0.01 0.01 0.01 0.01 0.01 0.01 0.02 0.02 0.03 0.03 0.04 0.06 0.06 0.04 0.04 0.04 0.05 0.06 0.07 0.08 0.08 0.08 0.08 0.07
0.01 0.02 0.02 0.02 0.02 0.02 0.02 0.02 0.02 0.02 0.01 0.01 0.01 0.01 0.02 0.02 0.02 0.01 0.01 0.01 0.01 0.02 0.02 0.03 0.05 0.07 0.08 0.06 0.04 0.03 0.04 0.05 0.06 0.07 0.08 0.08 0.07 0.06
0.03 0.05 0.07 0.06 0.03 0.03 0.04 0.03 0.03 0.02 0.01 0.01 0.01 0.01 0.02 0.02 0.02 0.02 0.02 0.01 0.01 0.02 0.02 0.02 0.03 0.06 0.08 0.09 0.07 0.05 0.05 0.06 0.07 0.07 0.07 0.08 0.08 0.08
0.02 0.02 0.03 0.04 0.03 0.02 0.02 0.02 0.02 0.02 0.01 0.01 0.01 0.02 0.02 0.02 0.03 0.03 0.02 0.02 0.01 0.02 0.02 0.02 0.03 0.04 0.06 0.09 0.10 0.06 0.04 0.05 0.06 0.07 0.07 0.07 0.08 0.07
0.01 0.01 0.01 0.01 0.01 0.02 0.01 0.02 0.02 0.02 0.01 0.01 0.01 0.02 0.03 0.03 0.03 0.04 0.05 0.04 0.03 0.02 0.02 0.02 0.03 0.04 0.06 0.08 0.09 0.09 0.07 0.05 0.05 0.07 0.07 0.07 0.07 0.07
0.00 0.00 0.00 0.01 0.03 0.05 0.03 0.02 0.02 0.02 0.01 0.01 0.02 0.01 0.02 0.02 0.02 0.03 0.04 0.04 0.04 0.03 0.03 0.03 0.04 0.05 0.06 0.07 0.08 0.10 0.09 0.07 0.07 0.07 0.06 0.06 0.05 0.05
MSLP
1019.55 1019.55 1019.56 1019.58 1019.60 1019.62 1019.63 1019.61 1019.57 1019.51 1019.42 1019.32 1019.21 1019.10 1018.98 1018.86 1018.74 1018.62 1018.50 1018.39 1018.29 1018.21 1018.15 1018.11 1018.10 1018.11 1018.15 1018.21 1018.27 1018.34 1018.40 1018.46 1018.51 1018.57 1018.63 1018.71 1018.80 1018.92
1019.91 1019.96 1020.01 1020.05 1020.09 1020.12 1020.13 1020.12 1020.08 1020.03 1019.95 1019.87 1019.77 1019.66 1019.55 1019.43 1019.30 1019.15 1019.00 1018.85 1018.69 1018.54 1018.40 1018.29 1018.21 1018.16 1018.14 1018.15 1018.18 1018.22 1018.27 1018.31 1018.35 1018.38 1018.41 1018.45 1018.49 1018.55
1020.30 1020.39 1020.47 1020.54 1020.59 1020.62 1020.63 1020.62 1020.58 1020.53 1020.46 1020.39 1020.31 1020.22 1020.12 1020.01 1019.87 1019.72 1019.54 1019.34 1019.13 1018.91 1018.70 1018.51 1018.35 1018.23 1018.15 1018.10 1018.09 1018.09 1018.11 1018.13 1018.13 1018.13 1018.12 1018.11 1018.10 1018.10
1020.73 1020.86 1020.97 1021.05 1021.11 1021.14 1021.14 1021.12 1021.08 1021.02 1020.96 1020.89 1020.82 1020.74 1020.65 1020.55 1020.42 1020.26 1020.06 1019.82 1019.56 1019.28 1018.99 1018.73 1018.49 1018.29 1018.13 1018.03 1017.96 1017.93 1017.90 1017.89 1017.86 1017.82 1017.77 1017.71 1017.64 1017.59
1021.23 1021.37 1021.50 1021.59 1021.65 1021.67 1021.66 1021.62 1021.56 1021.50 1021.43 1021.36 1021.28 1021.21 1021.13 1021.02 1020.89 1020.71 1020.49 1020.22 1019.90 1019.57 1019.22 1018.88 1018.56 1018.29 1018.07 1017.91 1017.79 1017.71 1017.65 1017.59 1017.53 1017.46 1017.37 1017.26 1017.14 1017.04
1021.76 1021.91 1022.03 1022.11 1022.16 1022.17 1022.15 1022.09 1022.02 1021.94 1021.86 1021.78 1021.70 1021.61 1021.52 1021.40 1021.25 1021.05 1020.80 1020.49 1020.13 1019.75 1019.34 1018.94 1018.57 1018.23 1017.96 1017.74 1017.57 1017.44 1017.35 1017.26 1017.16 1017.05 1016.92 1016.77 1016.62 1016.46
1022.25 1022.39 1022.50 1022.57 1022.61 1022.60 1022.57 1022.50 1022.42 1022.33 1022.23 1022.13 1022.03 1021.93 1021.81 1021.67 1021.49 1021.26 1020.98 1020.64 1020.25 1019.82 1019.37 1018.93 1018.51 1018.13 1017.80 1017.54 1017.33 1017.16 1017.02 1016.90 1016.77 1016.62 1016.45 1016.26 1016.06 1015.86
1022.65 1022.76 1022.84 1022.90 1022.93 1022.92 1022.88 1022.82 1022.73 1022.63 1022.52 1022.41 1022.29 1022.16 1022.02 1021.84 1021.63 1021.37 1021.05 1020.69 1020.27 1019.81 1019.34 1018.87 1018.42 1018.01 1017.65 1017.35 1017.09 1016.88 1016.70 1016.53 1016.35 1016.16 1015.94 1015.71 1015.46 1015.21
1022.86 1022.95 1023.02 1023.07 1023.09 1023.09 1023.06 1023.00 1022.93 1022.83 1022.72 1022.60 1022.47 1022.31 1022.14 1021.93 1021.69 1021.40 1021.06 1020.68 1020.25 1019.78 1019.30 1018.82 1018.36 1017.93 1017.53 1017.19 1016.89 1016.63 1016.39 1016.16 1015.92 1015.67 1015.40 1015.11 1014.80 1014.50
1022.88 1022.94 1023.00 1023.04 1023.08 1023.09 1023.08 1023.05 1022.99 1022.92 1022.82 1022.69 1022.55 1022.38 1022.18 1021.95 1021.69 1021.38 1021.03 1020.64 1020.22 1019.76 1019.29 1018.81 1018.35 1017.90 1017.48 1017.09 1016.73 1016.40 1016.08 1015.77 1015.46 1015.13 1014.79 1014.43 1014.07 1013.71
1022.71 1022.76 1022.81 1022.86 1022.91 1022.94 1022.96 1022.96 1022.93 1022.87 1022.79 1022.67 1022.52 1022.35 1022.14 1021.89 1021.62 1021.31 1020.97 1020.59 1020.19 1019.75 1019.30 1018.84 1018.37 1017.91 1017.46 1017.02 1016.59 1016.17 1015.77 1015.36 1014.95 1014.54 1014.12 1013.69 1013.26 1012.83
1022.41 1022.46 1022.52 1022.58 1022.63 1022.68 1022.72 1022.74 1022.74 1022.70 1022.62 1022.52 1022.37 1022.19 1021.97 1021.73 1021.46 1021.16 1020.84 1020.49 1020.12 1019.72 1019.30 1018.86 1018.39 1017.92 1017.43 1016.92 1016.42 1015.91 1015.40 1014.89 1014.39 1013.88 1013.38 1012.88 1012.39 1011.91
1022.06 1022.11 1022.17 1022.23 1022.29 1022.34 1022.39 1022.42 1022.41 1022.38 1022.31 1022.20 1022.05 1021.87 1021.65 1021.42 1021.16 1020.88 1020.59 1020.28 1019.95 1019.60 1019.21 1018.79 1018.34 1017.84 1017.32 1016.76 1016.17 1015.57 1014.97 1014.36 1013.76 1013.17 1012.60 1012.04 1011.51 1010.99
1021.70 1021.76 1021.81 1021.86 1021.90 1021.94 1021.97 1021.98 1021.96 1021.91 1021.83 1021.71 1021.55 1021.36 1021.15 1020.92 1020.68 1020.43 1020.17 1019.91 1019.63 1019.32 1018.97 1018.58 1018.13 1017.63 1017.07 1016.46 1015.81 1015.14 1014.45 1013.76 1013.09 1012.44 1011.82 1011.22 1010.66 1010.12
1021.36 1021.40 1021.43 1021.46 1021.47 1021.47 1021.46 1021.43 1021.37 1021.29 1021.18 1021.03 1020.85 1020.65 1020.43 1020.21 1019.99 1019.77 1019.55 1019.33 1019.09 1018.83 1018.52 1018.16 1017.73 1017.23 1016.65 1016.02 1015.33 1014.60 1013.86 1013.13 1012.41 1011.73 1011.08 1010.47 1009.89 1009.34
1020.98 1021.01 1021.01 1020.99 1020.96 1020.91 1020.84 1020.75 1020.65 1020.52 1020.36 1020.18 1019.98 1019.76 1019.54 1019.32 1019.11 1018.92 1018.73 1018.54 1018.34 1018.12 1017.85 1017.52 1017.12 1016.63 1016.07 1015.43 1014.73 1013.99 1013.23 1012.48 1011.76 1011.06 1010.41 1009.81 1009.23 1008.68
1020.49 1020.50 1020.47 1020.40 1020.32 1020.21 1020.09 1019.95 1019.79 1019.61 1019.42 1019.20 1018.97 1018.74 1018.52 1018.30 1018.10 1017.92 1017.75 1017.59 1017.43 1017.24 1017.00 1016.71 1016.34 1015.88 1015.35 1014.73 1014.06 1013.34 1012.60 1011.87 1011.16 1010.48 1009.84 1009.23 1008.66 1008.10
1019.80 1019.79 1019.73 1019.63 1019.51 1019.36 1019.20 1019.01 1018.82 1018.61 1018.39 1018.16 1017.92 1017.68 1017.45 1017.23 1017.03 1016.86 1016.70 1016.56 1016.41 1016.24 1016.04 1015.78 1015.45 1015.04 1014.55 1013.98 1013.36 1012.69 1011.99 1011.30 1010.61 1009.95 1009.32 1008.71 1008.11 1007.53
1018.86 1018.84 1018.77 1018.66 1018.52 1018.35 1018.17 1017.98 1017.78 1017.57 1017.34 1017.11 1016.88 1016.64 1016.41 1016.20 1016.00 1015.83 1015.67 1015.53 1015.39 1015.23 1015.05 1014.81 1014.52 1014.16 1013.73 1013.23 1012.66 1012.05 1011.41 1010.75 1010.09 1009.44 1008.79 1008.15 1007.52 1006.87
1017.65 1017.64 1017.58 1017.49 1017.36 1017.22 1017.06 1016.89 1016.71 1016.52 1016.33 1016.12 1015.90 1015.68 1015.47 1015.26 1015.06 1014.88 1014.71 1014.56 1014.41 1014.26 1014.08 1013.87 1013.61 1013.29 1012.92 1012.47 1011.97 1011.42 1010.82 1010.19 1009.54 1008.87 1008.19 1007.49 1006.77 1006.04
1016.23 1016.25 1016.23 1016.18 1016.10 1016.00 1015.90 1015.78 1015.65 1015.51 1015.36 1015.20 1015.02 1014.83 1014.63 1014.43 1014.23 1014.03 1013.85 1013.67 1013.51 1013.34 1013.16 1012.95 1012.72 1012.44 1012.11 1011.72 1011.27 1010.76 1010.19 1009.57 1008.90 1008.19 1007.44 1006.64 1005.82 1004.97
1014.70 1014.77 1014.80 1014.81 1014.79 1014.77 1014.73 1014.68 1014.62 1014.55 1014.46 1014.34 1014.21 1014.05 1013.87 1013.67 1013.46 1013.25 1013.05 1012.85 1012.65 1012.46 1012.27 1012.06 1011.84 1011.58 1011.28 1010.92 1010.51 1010.02 1009.46 1008.83 1008.12 1007.34 1006.49 1005.59 1004.64 1003.66
1013.18 1013.30 1013.40 1013.47 1013.52 1013.56 1013.59 1013.61 1013.62 1013.61 1013.57 1013.51 1013.41 1013.28 1013.12 1012.93 1012.71 1012.49 1012.25 1012.02 1011.80 1011.58 1011.37 1011.15 1010.93 1010.68 1010.39 1010.06 1009.66 1009.18 1008.61 1007.94 1007.18 1006.32 1005.37 1004.35 1003.27 1002.17
Thickness
5699 5699 5698 5698 5698 5697 5696 5695 5692 5691 5694 5698 5700 5702 5702 5702 5702 5706 5709 5708 5710 5712 5714 5715 5716 5718 5719 5721 5722 5724 5725 5726 5727 5728 5728 5728 5728 5729
5696 5696 5696 5697 5696 5695 5695 5695 5694 5692 5691 5695 5696 5699 5699 5701 5700 5703 5705 5705 5707 5708 5710 5711 5713 5714 5715 5717 5718 5720 5721 5721 5723 5723 5723 5723 5724 5724
5697 5696 5695 5694 5695 5695 5694 5693 5692 5691 5689 5692 5696 5697 5697 5697 5698 5700 5702 5704 5706 5705 5707 5708 5709 5711 5712 5713 5714 5715 5717 5717 5717 5718 5718 5718 5719 5720
5694 5694 5693 5693 5692 5692 5691 5691 5691 5690 5688 5687 5690 5692 5693 5694 5694 5696 5699 5701 5702 5702 5703 5705 5706 5707 5707 5708 5710 5711 5712 5712 5712 5713 5714 5714 5715 5715
5692 5691 5691 5690 5690 5689 5688 5689 5688 5688 5687 5686 5686 5687 5689 5690 5691 5692 5695 5696 5699 5699 5700 5701 5702 5703 5703 5704 5705 5706 5707 5707 5708 5708 5709 5710 5710 5711
5688 5688 5687 5686 5685 5685 5685 5685 5684 5684 5683 5683 5683 5684 5684 5685 5686 5687 5689 5692 5694 5697 5697 5697 5698 5699 5700 5701 5701 5702 5702 5702 5703 5703 5704 5705 5705 5706
5684 5683 5681 5678 5675 5676 5677 5678 5679 5679 5679 5678 5678 5679 5680 5679 5680 5682 5683 5686 5689 5692 5692 5694 5695 5696 5697 5697 5697 5697 5697 5697 5697 5698 5699 5700 5700 5701
5679 5678 5677 5674 5672 5670 5669 5669 5669 5671 5672 5672 5672 5673 5673 5674 5674 5675 5677 5678 5680 5685 5685 5687 5689 5691 5692 5693 5693 5692 5691 5691 5691 5692 5693 5694 5695 5696
5673 5672 5671 5669 5667 5669 5668 5666 5666 5664 5663 5665 5667 5667 5667 5668 5668 5668 5669 5670 5672 5676 5677 5679 5682 5684 5686 5687 5686 5685 5685 5685 5686 5686 5687 5688 5689 5690
5666 5665 5664 5663 5661 5660 5663 5663 5663 5662 5660 5661 5661 5661 5660 5660 5660 5661 5662 5664 5667 5668 5668 5669 5674 5676 5679 5679 5679 5678 5678 5678 5679 5679 5681 5682 5683 5683
5659 5657 5656 5655 5650 5649 5653 5655 5656 5656 5654 5652 5651 5651 5651 5650 5650 5651 5654 5655 5657 5660 5661 5660 5663 5665 5668 5671 5672 5671 5670 5670 5671 5672 5673 5674 5675 5676
5652 5651 5646 5644 5642 5641 5645 5647 5647 5648 5647 5648 5647 5647 5646 5646 5643 5643 5644 5644 5646 5648 5651 5649 5650 5651 5655 5661 5662 5662 5661 5662 5662 5663 5664 5665 5666 5666
5644 5643 5641 5636 5634 5633 5633 5636 5635 5634 5637 5639 5640 5640 5639 5638 5636 5634 5634 5632 5633 5635 5637 5635 5636 5637 5637 5644 5648 5650 5652 5653 5653 5654 5655 5656 5657 5657
5634 5634 5632 5627 5626 5625 5625 5624 5623 5623 5627 5628 5629 5629 5628 5627 5625 5624 5622 5621 5621 5622 5622 5621 5621 5622 5623 5627 5633 5638 5640 5641 5642 5644 5646 5647 5647 5648
5626 5623 5620 5619 5618 5619 5617 5615 5614 5616 5616 5616 5617 5617 5616 5615 5613 5612 5612 5611 5611 5610 5610 5609 5608 5609 5610 5613 5618 5623 5625 5628 5630 5632 5634 5636 5638 5639
5617 5615 5613 5612 5610 5609 5609 5609 5608 5606 5604 5604 5604 5604 5604 5602 5601 5601 5600 5599 5599 5601 5599 5597 5596 5596 5597 5600 5602 5606 5610 5613 5617 5618 5620 5622 5625 5627
5607 5607 5608 5606 5606 5605 5603 5601 5598 5596 5594 5593 5592 5592 5591 5590 5589 5587 5585 5585 5585 5586 5588 5586 5584 5583 5584 5585 5588 5592 5595 5598 5601 5603 5604 5607 5612 5615
5595 5598 5598 5597 5595 5594 5592 5590 5588 5586 5584 5582 5581 5579 5577 5577 5575 5574 5571 5571 5571 5571 5571 5571 5570 5570 5572 5575 5574 5577 5581 5584 5586 5588 5589 5592 5598 5602
5587 5589 5588 5586 5585 5583 5581 5578 5577 5574 5572 5570 5568 5566 5564 5562 5561 5559 5558 5556 5555 5555 5554 5553 5552 5552 5555 5562 5567 5562 5563 5567 5569 5572 5575 5578 5583 5588
5579 5578 5577 5575 5573 5571 5569 5566 5564 5562 5559 5556 5554 5552 5549 5547 5545 5544 5543 5541 5540 5539 5539 5539 5537 5537 5538 5542 5549 5552 5549 5551 5554 5557 5561 5564 5568 5571
5570 5567 5565 5563 5560 5558 5556 5553 5550 5548 5545 5542 5540 5537 5535 5532 5531 5530 5528 5526 5523 5524 5524 5525 5524 5521 5521 5523 5529 5537 5538 5537 5538 5541 5544 5548 5552 5557
5559 5556 5553 5550 5548 5545 5542 5539 5537 5534 5531 5529 5526 5523 5521 5519 5517 5515 5513 5511 5510 5509 5509 5510 5509 5508 5508 5509 5514 5520 5523 5525 5525 5525 5527 5531 5536 5544
5547 5544 5541 5538 5534 5531 5528 5526 5523 5521 5518 5515 5513 5510 5508 5506 5503 5501 5499 5497 5496 5496 5495 5496 5495 5495 5496 5497 5499 5503 5507 5510 5512 5514 5518 5520 5522 5527